When you browse on this site, cookies collect data to enhance your experience and personalize the content and advertising you see.
Visit our Privacy Policy to learn more. By continuing to use the site, you agree to this use of cookies and data.
  • In Czech Republic
  • List of Countries
  • For 7 days
  • Water Temperature
  • Weather Map
  • Weather Widgets
  • user-avatar
    Login

    Hourly Weather Mendoza

    Today, 19 September, Thursday

    Time Temperature Precipitation Wind Pressure Humidity
    00:00 +17°C° 0 mm 3 mps 690 mmHg 21%
    01:00 +17°C° 0 mm 4 mps 691 mmHg 21%
    02:00 +14°C° 0 mm 5 mps 692 mmHg 27%
    03:00 +13°C° 0 mm 6 mps 693 mmHg 33%
    04:00 +10°C° 0 mm 7 mps 694 mmHg 39%
    05:00 +9°C° 0 mm 6 mps 694 mmHg 41%
    06:00 +8°C° 0 mm 5 mps 695 mmHg 43%
    07:00 +8°C° 0 mm 4 mps 696 mmHg 46%
    08:00 +8°C° 0 mm 4 mps 696 mmHg 42%
    09:00 +10°C° 0 mm 4 mps 696 mmHg 38%
    10:00 +10°C° 0 mm 3 mps 696 mmHg 34%
    11:00 +11°C° 0 mm 3 mps 696 mmHg 31%
    12:00 +12°C° 0 mm 3 mps 696 mmHg 29%
    13:00 +13°C° 0 mm 3 mps 696 mmHg 26%
    14:00 +14°C° 0 mm 3 mps 696 mmHg 25%
    15:00 +14°C° 0 mm 3 mps 696 mmHg 23%
    16:00 +14°C° 0 mm 4 mps 696 mmHg 22%
    17:00 +13°C° 0 mm 3 mps 697 mmHg 22%
    18:00 +12°C° 0 mm 3 mps 698 mmHg 22%
    19:00 +11°C° 0 mm 3 mps 698 mmHg 23%
    20:00 +12°C° 0 mm 2 mps 699 mmHg 23%
    21:00 +10°C° 0 mm 2 mps 699 mmHg 23%
    22:00 +10°C° 0 mm 1 mps 699 mmHg 23%
    23:00 +10°C° 0 mm 1 mps 699 mmHg 24%

    Tomorrow, 20 September, Friday

    Time Temperature Precipitation Wind Pressure Humidity
    00:00 +9°C° 0 mm 1 mps 699 mmHg 25%
    01:00 +8°C° 0 mm 0 mps 699 mmHg 25%
    02:00 +8°C° 0 mm 0 mps 699 mmHg 26%
    03:00 +7°C° 0 mm 0 mps 699 mmHg 27%
    04:00 +7°C° 0 mm 0 mps 699 mmHg 27%
    05:00 +8°C° 0 mm 0 mps 700 mmHg 25%
    06:00 +11°C° 0 mm 1 mps 700 mmHg 22%
    07:00 +12°C° 0 mm 1 mps 701 mmHg 20%
    08:00 +13°C° 0 mm 2 mps 701 mmHg 19%
    09:00 +15°C° 0 mm 2 mps 701 mmHg 17%
    10:00 +16°C° 0 mm 3 mps 701 mmHg 16%
    11:00 +17°C° 0 mm 4 mps 701 mmHg 15%
    12:00 +19°C° 0 mm 4 mps 700 mmHg 15%
    13:00 +20°C° 0 mm 5 mps 700 mmHg 14%
    14:00 +20°C° 0 mm 4 mps 700 mmHg 14%
    15:00 +20°C° 0 mm 4 mps 700 mmHg 14%
    16:00 +20°C° 0 mm 4 mps 699 mmHg 13%
    17:00 +19°C° 0 mm 4 mps 700 mmHg 15%
    18:00 +17°C° 0 mm 3 mps 700 mmHg 16%
    19:00 +16°C° 0 mm 3 mps 700 mmHg 18%
    20:00 +15°C° 0 mm 2 mps 700 mmHg 19%
    21:00 +15°C° 0 mm 2 mps 700 mmHg 20%
    22:00 +14°C° 0 mm 2 mps 701 mmHg 21%
    23:00 +13°C° 0 mm 2 mps 700 mmHg 22%

    Day after tomorrow, 21 September, Saturday

    Time Temperature Precipitation Wind Pressure Humidity
    00:00 +13°C° 0 mm 1 mps 700 mmHg 22%
    01:00 +12°C° 0 mm 1 mps 699 mmHg 22%
    02:00 +11°C° 0 mm 1 mps 699 mmHg 23%
    03:00 +11°C° 0 mm 1 mps 699 mmHg 24%
    04:00 +10°C° 0 mm 1 mps 699 mmHg 25%
    05:00 +11°C° 0 mm 1 mps 699 mmHg 23%
    06:00 +13°C° 0 mm 1 mps 700 mmHg 20%
    07:00 +15°C° 0 mm 1 mps 700 mmHg 18%
    08:00 +16°C° 0 mm 1 mps 701 mmHg 17%
    09:00 +17°C° 0 mm 2 mps 701 mmHg 16%
    10:00 +19°C° 0 mm 2 mps 701 mmHg 16%
    11:00 +20°C° 0 mm 2 mps 700 mmHg 15%
    12:00 +21°C° 0 mm 2 mps 700 mmHg 14%
    13:00 +23°C° 0 mm 2 mps 700 mmHg 13%
    14:00 +23°C° 0 mm 2 mps 700 mmHg 13%
    15:00 +23°C° 0 mm 2 mps 700 mmHg 13%
    16:00 +24°C° 0 mm 2 mps 700 mmHg 12%
    17:00 +21°C° 0 mm 2 mps 700 mmHg 14%
    18:00 +20°C° 0 mm 2 mps 701 mmHg 16%
    19:00 +18°C° 0 mm 2 mps 701 mmHg 18%
    20:00 +17°C° 0 mm 2 mps 701 mmHg 20%
    21:00 +16°C° 0 mm 2 mps 701 mmHg 21%
    22:00 +16°C° 0 mm 2 mps 702 mmHg 23%
    23:00 +14°C° 0 mm 3 mps 701 mmHg 24%

    22 September, Sunday

    Time Temperature Precipitation Wind Pressure Humidity
    00:00 +14°C° 0 mm 3 mps 701 mmHg 25%
    01:00 +13°C° 0 mm 4 mps 701 mmHg 27%
    02:00 +12°C° 0 mm 4 mps 700 mmHg 28%
    03:00 +12°C° 0 mm 4 mps 700 mmHg 29%
    04:00 +11°C° 0 mm 4 mps 700 mmHg 30%
    05:00 +12°C° 0 mm 4 mps 700 mmHg 29%
    06:00 +13°C° 0 mm 4 mps 700 mmHg 28%
    07:00 +13°C° 0 mm 4 mps 701 mmHg 27%
    08:00 +16°C° 0 mm 3 mps 700 mmHg 25%
    09:00 +17°C° 0 mm 3 mps 700 mmHg 24%
    10:00 +18°C° 0 mm 3 mps 700 mmHg 22%
    11:00 +19°C° 0 mm 3 mps 700 mmHg 21%
    12:00 +20°C° 0 mm 2 mps 699 mmHg 20%
    13:00 +21°C° 0 mm 2 mps 698 mmHg 19%
    14:00 +21°C° 0 mm 2 mps 698 mmHg 19%
    15:00 +23°C° 0 mm 1 mps 698 mmHg 18%
    16:00 +23°C° 0 mm 1 mps 697 mmHg 18%
    17:00 +22°C° 0 mm 1 mps 698 mmHg 20%
    18:00 +21°C° 0 mm 1 mps 698 mmHg 22%
    19:00 +19°C° 0 mm 2 mps 699 mmHg 24%
    20:00 +18°C° 0 mm 2 mps 699 mmHg 25%
    21:00 +18°C° 0 mm 2 mps 699 mmHg 26%
    22:00 +17°C° 0 mm 2 mps 699 mmHg 26%
    23:00 +16°C° 0 mm 2 mps 699 mmHg 30%

    23 September, Monday

    Time Temperature Precipitation Wind Pressure Humidity
    00:00 +15°C° 0 mm 1 mps 699 mmHg 33%
    01:00 +14°C° 0 mm 1 mps 699 mmHg 36%
    02:00 +14°C° 0 mm 2 mps 699 mmHg 35%
    03:00 +14°C° 0 mm 2 mps 699 mmHg 35%
    04:00 +13°C° 0 mm 3 mps 699 mmHg 35%
    05:00 +14°C° 0 mm 3 mps 700 mmHg 32%
    06:00 +17°C° 0 mm 3 mps 701 mmHg 29%
    07:00 +18°C° 0 mm 3 mps 702 mmHg 25%
    08:00 +20°C° 0 mm 4 mps 702 mmHg 23%
    09:00 +22°C° 0 mm 4 mps 703 mmHg 20%
    10:00 +25°C° 0 mm 5 mps 703 mmHg 18%
    11:00 +25°C° 0 mm 4 mps 703 mmHg 17%
    12:00 +26°C° 0 mm 4 mps 703 mmHg 16%
    13:00 +26°C° 0 mm 3 mps 702 mmHg 16%
    14:00 +26°C° 0 mm 3 mps 702 mmHg 16%
    15:00 +26°C° 0 mm 3 mps 702 mmHg 16%
    16:00 +26°C° 0 mm 3 mps 702 mmHg 16%
    17:00 +25°C° 0 mm 3 mps 702 mmHg 19%
    18:00 +23°C° 0 mm 2 mps 703 mmHg 22%
    19:00 +21°C° 0 mm 2 mps 703 mmHg 24%
    20:00 +20°C° 0 mm 2 mps 703 mmHg 27%
    21:00 +19°C° 0 mm 2 mps 703 mmHg 29%
    22:00 +19°C° 0 mm 1 mps 703 mmHg 32%
    23:00 +18°C° 0 mm 1 mps 703 mmHg 33%

    24 September, Tuesday

    Time Temperature Precipitation Wind Pressure Humidity
    00:00 +18°C° 0 mm 1 mps 703 mmHg 35%
    01:00 +16°C° 0 mm 2 mps 703 mmHg 37%
    02:00 +16°C° 0 mm 2 mps 703 mmHg 37%
    03:00 +16°C° 0 mm 2 mps 702 mmHg 37%
    04:00 +14°C° 0 mm 3 mps 702 mmHg 37%
    05:00 +16°C° 0 mm 2 mps 703 mmHg 34%
    06:00 +17°C° 0 mm 2 mps 703 mmHg 31%
    07:00 +18°C° 0 mm 2 mps 703 mmHg 28%
    08:00 +19°C° 0 mm 2 mps 703 mmHg 26%
    09:00 +20°C° 0 mm 2 mps 703 mmHg 24%
    10:00 +21°C° 0 mm 2 mps 703 mmHg 23%
    11:00 +24°C° 0 mm 2 mps 703 mmHg 22%
    12:00 +25°C° 0 mm 3 mps 702 mmHg 21%
    13:00 +26°C° 0 mm 3 mps 701 mmHg 20%
    14:00 +27°C° 0 mm 3 mps 701 mmHg 19%
    15:00 +27°C° 0 mm 4 mps 701 mmHg 18%
    16:00 +27°C° 0 mm 4 mps 700 mmHg 18%
    17:00 +26°C° 0 mm 4 mps 700 mmHg 20%
    18:00 +24°C° 0 mm 3 mps 700 mmHg 22%
    19:00 +23°C° 0 mm 2 mps 700 mmHg 25%
    20:00 +21°C° 0 mm 2 mps 700 mmHg 27%
    21:00 +20°C° 0 mm 2 mps 700 mmHg 29%
    22:00 +19°C° 0 mm 2 mps 700 mmHg 31%
    23:00 +19°C° 0 mm 2 mps 699 mmHg 32%
    Show more